CW6575 Weather Reports


Display with metric or nautical units.
time (UTC)temp
F
wind
direction
speed
MPH
gust
MPH
rain 1hr
in
rain 24hr
in
rain mn
in
humidity
%
barometer
mb
20260831033043 67 154 0.0 0.0 0.00 0.11 0.11 93 1019.1
20260831031543 67 154 0.0 1.0 0.00 0.11 0.11 93 1019.0
20260831030043 67 142 0.0 2.0 0.00 0.11 0.11 93 1019.1
20260831024543 67 142 0.0 2.0 0.00 0.11 0.11 93 1019.1
20260831023041 67 160 1.0 3.0 0.00 0.11 0.11 93 1019.2
20260831021541 67 160 2.0 4.0 0.00 0.11 0.11 92 1019.2
20260831020041 67 156 1.0 3.0 0.00 0.11 0.11 92 1019.1
20260831014555 67 153 1.0 5.0 0.00 0.11 0.11 91 1019.2
20260831013046 67 150 3.0 6.0 0.00 0.11 0.11 92 1019.2
20260831011538 67 161 1.0 4.0 0.00 0.11 0.11 92 1019.2
20260831010038 67 168 1.0 3.0 0.00 0.11 0.11 93 1018.9
20260831004539 67 161 1.0 3.0 0.00 0.11 0.11 93 1018.7
20260831003047 67 178 0.0 4.0 0.00 0.11 0.11 93 1018.5
20260831001548 68 136 1.0 3.0 0.00 0.11 0.11 92 1018.2
20260831000041 68 163 0.0 2.0 0.00 0.11 0.11 92 1017.9
20260830234535 69 159 1.0 3.0 0.00 0.11 0.11 91 1017.7
20260830233037 70 161 1.0 5.0 0.00 0.11 0.11 90 1017.9
20260830231535 71 149 3.0 5.0 0.00 0.11 0.11 89 1017.9
20260830230033 73 159 2.0 3.0 0.00 0.11 0.11 87 1017.6
20260830224538 74 169 0.0 2.0 0.00 0.11 0.11 88 1017.8
20260830223032 74 146 0.0 4.0 0.00 0.11 0.11 85 1017.9
20260830221531 74 159 0.0 3.0 0.00 0.11 0.11 86 1018.2
20260830220033 73 137 2.0 5.0 0.00 0.11 0.11 89 1018.2
20260830214541 72 168 2.0 5.0 0.00 0.11 0.11 92 1018.3
20260830213029 72 159 0.0 1.0 0.11 0.11 0.11 92 1018.4
20260830211534 71 159 0.0 3.0 0.11 0.11 0.11 91 1018.3
20260830210034 71 330 0.0 1.0 0.11 0.11 0.11 89 1018.2
20260830204534 71 330 0.0 4.0 0.11 0.11 0.11 82 1018.0
20260830203028 79 341 4.0 9.0 0.00 0.00 0.00 68 1017.8
20260830201527 82 337 1.0 5.0 0.00 0.00 0.00 62 1017.4
20260830200025 83 330 1.0 5.0 0.00 0.00 0.00 56 1017.7
20260830194525 85 342 2.0 5.0 0.00 0.00 0.00 54 1017.7
20260830193022 83 326 1.0 4.0 0.00 0.00 0.00 58 1017.9
20260830191522 83 9 2.0 5.0 0.00 0.00 0.00 58 1018.3
20260830190017 83 178 0.0 3.0 0.00 0.00 0.00 55 1018.4
20260830184516 82 15 1.0 4.0 0.00 0.00 0.00 58 1018.7
20260830183014 84 321 3.0 9.0 0.00 0.00 0.00 55 1018.7
20260830181512 84 313 2.0 4.0 0.00 0.00 0.00 55 1018.8
20260830180009 82 347 2.0 5.0 0.00 0.00 0.00 55 1018.9
20260830174508 83 340 1.0 6.0 0.00 0.00 0.00 58 1019.2
20260830173005 83 330 1.0 4.0 0.00 0.00 0.00 58 1019.3
20260830171502 83 271 1.0 4.0 0.00 0.00 0.00 59 1019.6
20260830170104 83 295 2.0 6.0 0.00 0.00 0.00 61 1019.7
20260830170000 82 350 2.0 6.0 0.00 0.00 0.00 62 1019.7
20260830164604 81 235 1.0 7.0 0.00 0.00 0.00 64 1019.8
20260830163055 81 345 2.0 6.0 0.00 0.00 0.00 65 1019.9
20260830161555 81 287 2.0 7.0 0.00 0.00 0.00 65 1020.0
20260830160052 80 355 1.0 8.0 0.00 0.00 0.00 66 1020.2
20260830154550 79 342 0.0 5.0 0.00 0.00 0.00 69 1020.1
20260830153049 79 163 2.0 5.0 0.00 0.00 0.00 72 1020.0
20260830151545 78 165 1.0 6.0 0.00 0.00 0.00 73 1020.1
20260830150044 78 173 2.0 7.0 0.00 0.00 0.00 71 1020.1
20260830144542 78 175 3.0 8.0 0.00 0.00 0.00 69 1020.3
20260830143053 77 130 2.0 7.0 0.00 0.00 0.00 72 1020.3
20260830141540 75 161 0.0 6.0 0.00 0.00 0.00 75 1020.2
20260830140031 73 155 4.0 7.0 0.00 0.00 0.00 79 1020.3
20260830134537 72 149 2.0 8.0 0.00 0.00 0.00 79 1020.1
20260830133024 72 163 4.0 7.0 0.00 0.00 0.00 81 1020.1
20260830131522 71 169 4.0 7.0 0.00 0.00 0.00 82 1020.3
20260830130019 69 167 3.0 6.0 0.00 0.00 0.00 86 1020.5
20260830124514 68 144 3.0 7.0 0.00 0.00 0.00 89 1020.7
20260830123009 66 140 3.0 8.0 0.00 0.00 0.00 92 1020.7
20260830121505 65 140 2.0 5.0 0.00 0.00 0.00 92 1020.6
20260830120002 64 142 1.0 4.0 0.00 0.00 0.00 93 1020.7
20260830114501 64 146 2.0 5.0 0.00 0.00 0.00 93 1020.6
20260830113100 63 146 2.0 7.0 0.00 0.00 0.00 94 1020.5
20260830111600 63 141 3.0 6.0 0.00 0.00 0.00 94 1020.4
20260830110059 63 157 3.0 5.0 0.00 0.00 0.00 94 1020.4
20260830104558 63 140 2.0 7.0 0.00 0.00 0.00 94 1020.3
20260830103057 64 157 3.0 7.0 0.00 0.00 0.00 94 1020.2
20260830101558 63 146 2.0 6.0 0.00 0.00 0.00 94 1020.2
20260830100056 63 144 2.0 4.0 0.00 0.00 0.00 95 1020.4
20260830094555 63 165 1.0 3.0 0.00 0.00 0.00 95 1020.3
20260830093102 63 164 1.0 3.0 0.00 0.00 0.00 95 1020.2
20260830091553 63 165 1.0 3.0 0.00 0.00 0.00 94 1020.2
20260830090057 64 164 1.0 3.0 0.00 0.00 0.00 95 1020.3
20260830084600 64 155 2.0 5.0 0.00 0.00 0.00 95 1020.4
20260830083053 64 154 1.0 5.0 0.00 0.00 0.00 95 1020.4
20260830081559 63 167 2.0 3.0 0.00 0.00 0.00 95 1020.4
20260830080050 63 163 2.0 3.0 0.00 0.00 0.00 95 1020.4
20260830074603 63 167 1.0 3.0 0.00 0.00 0.00 95 1020.4
20260830073053 62 165 0.0 3.0 0.00 0.00 0.00 95 1020.2
20260830071556 62 159 1.0 5.0 0.00 0.00 0.00 95 1020.3
20260830070047 62 167 1.0 3.0 0.00 0.00 0.00 95 1020.5
20260830064546 62 167 1.0 3.0 0.00 0.00 0.00 95 1020.5
20260830063044 62 167 1.0 4.0 0.00 0.00 0.00 94 1020.7
20260830061542 62 167 1.0 4.0 0.00 0.00 0.00 95 1020.9
20260830060050 62 165 1.0 4.0 0.00 0.00 0.00 94 1020.9
20260830054550 63 164 2.0 3.0 0.00 0.00 0.00 94 1021.1
20260830053042 63 156 1.0 3.0 0.00 0.00 0.00 94 1021.0
20260830051539 64 147 1.0 4.0 0.00 0.00 0.00 94 1020.9
20260830050035 64 161 1.0 3.0 0.00 0.00 0.00 94 1020.9
20260830044535 64 144 2.0 5.0 0.00 0.00 0.00 94 1020.9
20260830043034 64 148 2.0 5.0 0.00 0.00 0.00 94 1021.0
20260830041538 63 152 2.0 3.0 0.00 0.00 0.00 94 1020.9
20260830040038 63 159 2.0 4.0 0.00 0.00 0.00 94 1020.8
20260830034530 64 163 0.0 1.0 0.00 0.00 0.00 94 1020.9